Showing default

HAISHAO 1, 62190

Orbit data source: Space-Track

HAISHAO 1, 62190 is a Chinese payload satellite in LEO that was launched on Wed, 04 Dec 2024 UTC via a KUAIZHOU-1A launch vehicle from the Xichang Space Center, China (XSC). Payload-class satellites include a variety of spacecraft equipped with specific instruments for various scientific and technological missions. These include communications satellites like Starlink; space stations such as the ISS; scientific satellites like the Hubble; Earth observation satellites from companies like Planet Labs, Umbra, and HawkEye 360; GPS; miniature CubeSats for education and research; and military/defense satellites.

Loading next visibility...
Identifier
62190, 2024-228A
Orbit
LEO
Last TLE update
12 hours ago
Origin
Manufacturer
ZHWK/IMICAS
Mission
Operational Commercial Radar Imaging
Bus & Motor
ZK1, Unknown motor
Mass
400 kg wet, 400 kg dry
Launch date (UTC)
2024-12-04 (7 months ago)
Launch vehicle
KUAIZHOU-1A
Launch site
Xichang Space Center, China (XSC)
Object type
Payload
Rocket body
Debris
Shape & HBR
Box + 3 Pan, 3.0 m
Radar Cross Section
3.533 m², Large (>1 m²)

Expand to show TLE details & history

TLE from 12 hours ago
0 HAISHAO 1
1 62190U 24228A   25199.47021768  .00013701  00000-0  13768-3 0  9997
2 62190  42.9890 200.8871 0001221  60.0514 300.0472 15.65327745 35289
Epoch: 2025-07-18T11:17Z
TLE epoch observation values (Epoch: 2025-07-18T11:17:06.807Z)
Latitude
-0.00006°
Longitude
95.08746°
Altitude
371.654 km
Speed
7.689 km/s
True Right ascension
13h 23m 32s
True Declination
0° 00' 00"
Sunlit
Object was in daylight at epoch
Visualization orbit readout
Latitude
21.66462°
Longitude
117.0711°
Altitude
371.03 km
Speed
7.691 km/s
Apparent Right ascension
18h 16m 23s
Apparent Declination
-23° 25' 29"
Sunlit
Object is in daylight
Visualization observer readout
Local Sidereal Time
12:28:07
Azimuth
110.084° ESE
Elevation
-12.654°
Doppler factor
1
Orbital elements
Apogee altitude
375.1 km
Perigee altitude
373.451 km
Semi-major axis
6,752.412 km
Eccentricity
0.00012
Inclination
42.989°
RAAN
200.8871°
Arg. of periapsis
60.0514°
True anomaly
300.03509°
Mean anomaly
300.0472°
Eccentric anomaly
300.04114°
Mean motion
3.9116 °/min
Orbital period
92.03 mins
BSTAR
0.00013768
Loading maneuver chart data...
Loading SW <> Apogee altitude chart data...
Loading historical data...
Loading historical data...
Loading historical data...
Loading historical data...
Loading historical data...
Loading historical data...
Loading historical data...
Other satellites on launch #228 in the year 2024 (2024-12-04 UTC)
|